Location: Molveno
(46.1500°N, 10.9667°E)
Time: 16:51:45
(UTC+00:00)

Landsat 4 - Pass Details

Date: 05 July 2020
Orbit: 506 x 522 km, 98.2° (Epoch: 10 August)

Event Time Altitude Azimuth Distance (km) Brightness Sun altitude
Rises 22:58:09 0° 20° (NNE) 2,651 8.4 -21.0°
Reaches altitude 10° 23:00:21 10° 28° (NNE) 1,760 7.2 -21.0°
Enters shadow 23:03:56 39° 99° (E) 788 4.4 -21.1°
